• If you are needing a 2014 Mazda 3 Hatchback Windshield Replacement we will ask you if your vehicle is equipped with the Smart City Brake System that detects objects in front of you when traveling at slow speeds?

    Is your vehicle equipped with the Lane Departure Warning System that alerts you when you are attempting to change lanes without using your turn signal?

    Is your vehicle equipped with rain-sensing windshield wipers that automatically adjust based upon the amount of rain on your windshield?

    There are 3 windshield options:

    Windshield with Third Visor Frit

    Windshield with Third Visor Frit with Rain Sensor

    Windshield with Rain Sensor with Third Visor Frit with the Smart City Brake System Feature

  • RECENT QUOTES

    What you see here are REAL quotes for REAL people all over the country. Don‘t get left out, fill out your information below to get a quote.

    Vehicle Part Quote Date Location
    2014 Mazda 3 Driver rear door glass $306.31 01/28/16 Portland, OR 97206
    2006 Mazda 3 Windshield $274.50 01/27/16 Pittsburgh, PA 15206
    2010 Mazda 3 Back glass-heated-dark privacy tint-with defrost $366.33 01/25/16 Benton, AR 72015
    2004 Mazda 3 Windshield with rain sensor $317.88 01/19/16 Stony Brook, NY 11790
    2015 Mazda 3 Windshield $357.33 01/18/16 San Marcos, TX 78666
    2012 Mazda 3 Windshield with rain sensor $313.53 01/12/16 La Porte, TX 77571
    2006 Mazda 3 Windshield $271.44 01/01/16 Lancaster, CA 93536
    2006 Mazda 3 Passenger front door glass $253.31 12/30/15 Valley Center, CA 92082
    2011 Mazda 3 Windshield with rain sensor $311.90 12/29/15 Santa Cruz, CA 95062
    2009 Mazda 3 Windshield $271.44 12/22/15 Mobile, AL 36602
    2014 Mazda 3 Windshield $379.72 12/20/15 Pflugerville, TX 78660
    2005 Mazda 3 Passenger rear door glass bronze tint $135.00 12/17/15 Redwood City, CA 94061
    2012 Mazda 3 Windshield with rain sensor $313.53 12/16/15 Tomball, TX 77377
    2011 Mazda 3 Windshield $339.43 11/25/15 Manchester Township, NJ 08759
    2012 Mazda 3 Windshield $340.48 11/20/15 Diamond Bar, CA 91765
    2014 Mazda 3 Windshield $339.43 11/06/15 San Jose, CA 95123
    2007 Mazda 3 Windshield with rain sensor $303.62 11/04/15 Baton Rouge, LA 70817
    2007 Mazda 3 Windshield $271.44 10/07/15 Ashburn, VA 20148
    2014 Mazda 3 Windshield $387.59 09/20/15 Ann Arbor, MI 48105
    2007 Mazda 3 Back glass $280.93 09/20/15 Chico, CA 95928
    2010 Mazda 3 Windshield $322.84 09/07/15 Julian, NC 27283
    2007 Mazda 3 Back glass $354.87 09/05/15 Columbus, OH 43223
    2012 Mazda 3 Windshield $330.75 09/02/15 Tucson, AZ 85718
    2010 Mazda 3 Quarter glass driver side $281.67 08/17/15 Schenectady, NY 12345
    2014 Mazda 3 Windshield with Lane departure warning system $275.00 08/12/15 North Hollywood, CA 91602
    2010 Mazda 3 Windshield with rain sensor $315.50 08/11/15 Ellensburg, WA 98926
    2009 Mazda 3 Windshield $281.45 08/10/15 Brentwood, NY 11717
    2010 Mazda 3 Windshield $341.25 08/10/15 , 96950
    2009 Mazda 3 Windshield $265.69 07/30/15 Knoxville, TN 37914
    2010 Mazda 3 Back glass-heated-with defrost-clear $366.83 07/24/15 Chancellor, AL 36316
    2014 Mazda 3 Windshield $468.75 07/19/15 Patchogue, NY 11772
    2013 Mazda 3 Windshield $215.00 07/11/15 San Antonio, TX 78233
    2004 Mazda 3 Windshield $265.69 07/09/15 Schiller Park, IL 60176
    2014 Mazda 3 Windshield with Lane departure warning system $690.74 07/06/15 Shreveport, LA 71106
    2007 Mazda 3 Windshield with rain sensor $312.63 07/05/15 Bethel Park, PA 15102
    2013 Mazda 3 Windshield $346.61 07/04/15 Delavan, IL 61734
    2011 Mazda 3 Windshield $185.00 07/02/15 Houston, TX 77041
    2015 Mazda 3 Windshield $466.47 06/29/15 Montalba, TX 75853
    2015 Mazda 3 Windshield $375.00 06/18/15 Anaheim, CA 92804
    2012 Mazda 3 Windshield $346.93 06/16/15 Morrow, GA 30260
    2006 Mazda 3 Back glass $354.58 06/12/15 Lake Station, IN 46405
    2005 Mazda 3 Passenger front door glass $253.47 06/10/15 Young America, MN 55555
    2014 Mazda 3 Windshield $469.82 06/09/15 Salem, OR 97301
    2012 Mazda 3 Windshield $334.67 06/07/15 Ijamsville, MD 21754
    2011 Mazda 3 Passenger rear door glass $260.44 06/03/15 Portland, OR 97213
    2010 Mazda 3 Windshield $347.56 06/01/15 Riverdale, GA 30296
    2015 Mazda 3 Vent glass rear passenger side door-opens with door $165.00 05/30/15 Belmont, CA 94002
    2005 Mazda 3 Passenger front door glass $251.36 05/23/15 Las Vegas, NV 89130
    2010 Mazda 3 Passenger rear door glass $258.58 05/21/15 Las Vegas, NV 89129
    2004 Mazda 3 Passenger front door glass $263.34 05/19/15 South Jordan, UT 84095
    2009 Mazda 3 Windshield $263.34 05/19/15 Natural Bridge, NY 13665
    2012 Mazda 3 Windshield $205.00 05/18/15 New Braunfels, TX 78132
    2009 Mazda 3 Back glass-heated-with defrost-clear $353.71 05/17/15 New Market, MD 21774
    2010 Mazda 3 Windshield $195.00 05/15/15 Katy, TX 77494
    2010 Mazda 3 Windshield $332.57 05/11/15 , 33472
    2010 Mazda 3 Windshield $363.74 05/09/15 Middle River, MD 21220
    2007 Mazda 3 Passenger front door glass $255.56 04/30/15 Vancouver, WA 98661
    2011 Mazda 3 Windshield $239.00 04/27/15 Austin, TX 78748
    2006 Mazda 3 Passenger rear door glass $255.90 04/26/15 Northville, MI 48168
    2006 Mazda 3 Windshield $322.21 04/23/15 Ashland, MA 01721
    2014 Mazda 3 Windshield $547.87 04/19/15 Pittsburgh, PA 15217
    2005 Mazda 3 Windshield $315.91 03/31/15 Brownsville, TX 78521
    2004 Mazda 3 Windshield $268.12 03/31/15 Cordova, IL 61242
    2011 Mazda 3 Quarter glass passenger side $275.00 03/26/15 San Francisco, CA 94107
    2004 Mazda 3 Back glass-heated-dark privacy tint-with defrost $261.08 03/26/15 Tampa, FL 33614
    2009 Mazda 3 Back glass-lift gate-privacy tint-heated-with defrost $292.78 03/25/15 Denham Springs, LA 70726
    2012 Mazda 3 Windshield $378.89 03/21/15 Colorado Springs, CO 80906
    2012 Mazda 3 Windshield $375.96 03/21/15 , 08509
    2013 Mazda 3 Windshield $375.96 03/21/15 Barnegat, NJ 08005
    2012 Mazda 3 Windshield $180.00 03/20/15 Artesia, CA 90701
    2014 Mazda 3 Passenger front door glass $309.53 03/17/15 Grosse Pointe, MI 48230
    2006 Mazda 3 Windshield $250.00 03/16/15 Montpelier, VT 05602
    2013 Mazda 3 Passenger front door glass $150.00 03/10/15 Lawndale, CA 90260
    2010 Mazda 3 Windshield $235.00 03/04/15 San Francisco, CA 94109
    2011 Mazda 3 Passenger front door glass $237.76 03/02/15 Birchwood, TN 37308
    2011 Mazda 3 Windshield with rain sensor $242.39 03/02/15 Georgetown, TN 37336
    2005 Mazda 3 Back glass $341.24 02/25/15 Bellville, OH 44813
    2008 Mazda 3 Quarter glass passenger side $175.00 02/21/15 Albany, CA 94706
    2014 Mazda 3 Windshield with Lane departure warning system $565.00 02/19/15 San Jose, CA 95112
    2015 Mazda 3 Windshield $437.42 02/17/15 Reno, NV 89502
    2006 Mazda 3 Windshield $295.09 02/16/15 Windham, ME 04062
    2008 Mazda 3 Door glass-sliding-passenger side $155.00 02/15/15 Huntington Beach, CA 92647
    2004 Mazda 3 Windshield $295.09 02/11/15 Saint Charles, MO 63301
    2006 Mazda 3 Windshield $258.92 01/21/15 Ben Lomond, CA 95005
    2006 Mazda 3 Passenger front door glass $243.83 01/19/15 Silver Spring, MD 20903
    2005 Mazda 3 Windshield $258.92 01/14/15 Summerville, SC 29485
    2015 Mazda 3 Windshield with rain sensor and heated wiper park area $716.94 01/09/15 Murfreesboro, TN 37129
    2011 Mazda 3 Driver Rear Quarter Glass $235.72 01/07/15 Salinas, CA 93906
    2007 Mazda 3 Rear Window Passenger Side $238.41 12/28/14 Milwaukee, WI 53202
    2004 Mazda 3 Windshield $269.27 12/23/14 Brockton, MA 02302
    2014 Mazda 3 Windshield $622.57 12/23/14 Jackson, NJ 08527
    2014 Mazda 3 Passenger Front Door Glass $237.13 12/23/14 Oklahoma City, OK 73162
    2005 Mazda 3 Windshield $288.91 12/20/14 Copperas Cove, TX 76522
    2005 Mazda 3 Driver Front Door Glass $229.04 12/10/14 Rome, NY 13440
    2010 Mazda 3 Windshield $315.14 11/13/14 Hendersonville, NC 28792
    2013 Mazda 3 Windshield $342.92 10/08/14 Berwick, ME 03901
    2010 Mazda 3 Windshield $330.33 10/04/14 Tucson, AZ 85705
    2011 Mazda 3 Rear Door Passenger Side Vent Glass Opens with doo $249.62 09/28/14 Nora, VA 24272
    2014 Mazda 3 Rear Window Passenger Side $297.28 09/27/14 Mountain View, CA 94040
    2010 Mazda 3 Rear Window Passenger Side Privacy Tint $281.63 09/12/14 Hyattsville, MD 20781
    2007 Mazda 3 Windshield $275.78 09/09/14 Columbia, TN 38401
    2014 Mazda 3 Windshield $450.66 09/05/14 Abingdon, MD 21009
    2011 Mazda 3 Quarter Glass Passenger Side Movable with Privacy $287.97 08/29/14 Redlake, MN 56671
    2012 Mazda 3 Windshield $328.39 08/24/14 Seattle, WA 98115
    2012 Mazda 3 Quarter Glass Drivers Side $283.99 08/19/14 Vienna, VA 22182
    2009 Mazda 3 Windshield $260.00 08/19/14 Clayton, NC 27527
    2012 Mazda 3 Windshield $309.14 08/15/14 Alexandria, VA 22312
    2010 Mazda 3 Passenger Front Door Glass $236.51 08/06/14 Savannah, GA 31411
    2007 Mazda 3 Vent Glass Drivers Side $327.14 07/23/14 Cape Girardeau, MO 63701
    2008 Mazda 3 Windshield $247.19 06/19/14 Lawrence, KS 66049
    2011 Mazda 3 Rear Window Passenger Side Vent Glass $95.00 06/03/14 Santa Ana, CA 92703
    2013 Mazda 3 Windshield $357.09 06/03/14 Fort Collins, CO 80528
    2011 Mazda 3 Rear Door Passenger Side Vent Glass Opens with doo $307.78 05/25/14 Washington DC, DC 20003
    2008 Mazda 3 Rear Window Passenger Side $296.78 05/23/14 Ocala, FL 34471
    2010 Mazda 3 Windshield with Green Tint $320.78 05/20/14 Youngsville, NC 27596
    2005 Mazda 3 Windshield $224.88 04/27/14 Hancock, MI 49930
    2007 Mazda 3 Side Window (Driver Side) $224.55 04/20/14 Tacoma, WA 98424
    2012 Mazda 3 Side Window (Driver Side) $256.61 03/23/14 Kenmore, WA 98028
    2009 Mazda 3 Side Window (Passenger Side) $287.63 03/08/14 Columbus, OH 43201
    2007 Mazda 3 Windshield $145.00 03/04/14 Riverside, CA 92507
    2012 Mazda 3 Side Window (Passenger Side) $209.00 03/02/14 Cincinnati, OH 45244
    2010 Mazda 3 Windshield $322.88 02/28/14 Farmingdale, NJ 07727
    2008 Mazda 3 Windshield $265.44 02/26/14 Somerset, WI 54025
    2010 Mazda 3 Rear Window (Passenger Side) $254.06 02/23/14 Alburgh, VT 05440
    2013 Mazda 3 Windshield $99.95 02/12/14 Columbus, OH 43224
    2008 Mazda 3 Windshield $267.63 02/06/14 Ballwin, MO 63021
    2010 Mazda 3 Rear Window Back Glass $380.95 01/05/14 Allston, MA 02134
    2011 Mazda 3 Side Window (Passenger Side) $145.00 12/02/13 Valley Village, CA 91607
    2010 Mazda 3 Rear Window Passenger Side Vent $238.95 10/20/13 Sahuarita, AZ 85629
    2006 Mazda 3 Windshield $273.95 09/28/13 Vail, AZ 85641
    2012 Mazda 3 Windshield with rain sensor $375.00 09/09/13 Bellevue, WA 98008
    2007 Mazda 3 Windshield $358.95 09/05/13 Metairie, LA 70002
    2013 Mazda 3 Side Window (Passenger Side) $120.00 08/22/13 Fountain Valley, CA 92708
    2005 Mazda 3 Rear Window (Passenger Side) $225.00 11/07/10 Miami, FL 33131
    2007 Mazda 3 Windshield $120.00 11/07/10 Dallas, TX 75287
    2010 Mazda 3 Windshield $457.00 10/29/10 Germantown, WI 53022
    2007 Mazda 3 Windshield $300.00 10/19/10 Philadelphia, PA 19116
    2010 Mazda 3 Windshield $320.90 10/15/10 Little Rock, AR 72202
    2006 Mazda 3 Windshield $247.95 10/11/10 Pleasanton, CA 94588
    2010 Mazda 3 Windshield $322.46 09/28/10 Alexandria, VA 22312
    2007 Mazda 3 Windshield $206.00 09/25/10 Bakersfield, CA 93312
    2005 Mazda 3 Rear Window (Passenger Side) $151.32 09/20/10 San Antonio, TX 78230
    2004 Mazda 3 Windshield $145.62 09/15/10 Kyle, TX 78640
    2005 Mazda 3 Back Window $208.42 09/13/10 Fort Lauderdale, FL 33305
    2008 Mazda 3 Windshield $216.00 09/07/10 Millbrae, CA 94030
    2007 Mazda 3 Windshield $250.95 09/04/10 North Hollywood, CA 91602
    2005 Mazda 3 Windshield $261.95 09/03/10 North Franklin, CT 06254
    2006 Mazda 3 Front Window Passenger Side Vent $160.50 08/28/10 Hopkins, MN 55343
    2004 Mazda 3 Windshield $200.00 08/16/10 Galveston, TX 77554
    2010 Mazda 3 Windshield $400.00 08/07/10 Woodbridge, VA 22193
    2010 Mazda 3 Windshield $418.00 08/05/10 Charlotte, NC 28202
    2007 Mazda 3 Windshield $190.00 07/31/10 Cedar Creek, TX 78612
    2010 Mazda 3 Side Window (Passenger Side) $220.00 07/20/10 Santa Monica, CA 90404
    2006 Mazda 3 Side Window (Driver Side) $165.00 07/19/10 San Antonio, TX 78230
    2008 Mazda 3 Windshield $165.00 07/18/10 Planada, CA 95365
    2004 Mazda 3 Windshield $203.85 07/08/10 Cary, NC 27513
    2004 Mazda 3 Windshield $267.95 07/04/10 Windsor Mill, MD 21244
    2008 Mazda 3 Windshield with rain sensor $297.95 06/28/10 Baltimore, MD 21231
    2006 Mazda 3 Windshield $216.00 06/18/10 Cary, NC 27513
    2005 Mazda 3 Windshield $300.00 06/11/10 Fort Lee, NJ 07024
    2008 Mazda 3 Windshield $227.00 06/06/10 Monroe Township, NJ 08831
    2006 Mazda 3 Windshield with rain sensor $249.00 05/29/10 Houston, TX 77077
    2007 Mazda 3 Windshield $245.00 05/28/10 Spring, TX 77382
    2010 Mazda 3 Windshield $109.00 05/10/10 Hauppauge, NY 11788
    2008 Mazda 3 Rear Window Back Glass $211.00 05/09/10 Lake Elsinore, CA 92532
    2004 Mazda 3 Rear Window (Passenger Side) $200.00 04/19/10 Kenmore, WA 98028
    2010 Mazda 3 Windshield $369.00 04/18/10 Spanaway, WA 98387
    2004 Mazda 3 Front Window Driver Side Vent $135.71 03/31/10 Las Vegas, NV 89121
    2008 Mazda 3 Windshield $225.00 03/30/10 Oswego, NY 13126
    2006 Mazda 3 Windshield $243.00 03/01/10 Macungie, PA 18062
    2007 Mazda 3 Side Window (Passenger Side) $145.90 01/27/10 Long Beach, CA 90814
    2005 Mazda 3 Side Window (Passenger Side) $192.00 11/08/09 Smyrna, GA 30080
    2007 Mazda 3 Side Window (Driver Side) $154.00 11/01/09 Philadelphia, PA 19139
    2004 Mazda 3 Side Window (Driver Side) $129.99 10/26/09 Los Angeles, CA 90278
    2007 Mazda 3 Windshield $150.00 10/13/09 Garland, TX 75044
    2004 Mazda 3 Side Window (Passenger Side) $171.92 10/12/09 Chicago, IL 60660
    Leave Comment